Погода в Кропачёво

Россия / Челябинская область     55°00′38″N   57°59′03″E
темп.,
°C
ветер,
м/с
пор.,
м/с
влажн.,
%
обл.,
%
осадки,
мм/ч
давл.,
гПа
погр.,
м
12 мая, ср
ср1223:00+14вюв1149100 0.0 102810
02:00+11ююв115576 0.0 102810
05:00+10ююв11615 0.0 102910
08:00+14ююв11521 0.0 1029115
11:00+20св11360 0.0 1029561
14:00+23ссв22310 0.0 10281535
17:00+23ссв32311 0.0 10271631
20:00+20св22460 0.0 102711
13 мая, чт
чт1323:00+15ююз11565 0.0 102811
02:00+13ю00645 0.0 102811
05:00+12ю11705 0.0 102910
08:00+16ю11581 0.0 1029122
11:00+21ссв22465 0.0 1028613
14:00+24ссв22370 0.0 10271731
17:00+25св23351 0.0 10261930
20:00+21в22520 0.0 102624
14 мая, пт
пт1423:00+16ююв11580 0.0 102711
02:00+14ю11644 0.0 102711
05:00+13ю11675 0.0 102810
08:00+18ю12576 0.0 1028146
11:00+23з224269 0.0 1027850
14:00+26зсз34375 0.0 10262208
17:00+25з55336 0.0 10262041
20:00+20з345294 0.0 102654
15 мая, сб
сб1523:00+16ю226099 0.0 102615
02:00+15ю22636 0.0 102611
05:00+14ю22656 0.0 102611
08:00+19ююз235755 0.1 1026151
11:00+24з34355 0.1 10251270
14:00+26з4530100 0.0 10241846
17:00+26з45315 0.0 10231952
20:00+22зюз225199 0.0 102312
16 мая, вс
вс1623:00+17ююз22595 0.0 102312
02:00+15ю22615 0.0 102211
05:00+14ю22634 0.0 102311
08:00+20ююз22535 0.0 1023139
11:00+26з34345 0.0 10221554
14:00+27з45300 0.0 10212537
17:00+27з66335 0.0 10202416
20:00+22зюз22490 0.0 102033